contact:dominique.lefevre@mio.osupytheas.fr, maurice.libes@osupytheas.fr, didier.mallarino@osupytheas.fr
Project:EMSO http://www.emso-fr.org/EMSO-France
Depth: 2436.0 m
Title:EMSO Ligure Ouest : Data MII capteur MICROCAT
DateTime_Computer,Latitude,Longitude,Temperature,Conductivity,Pressure,DateTime_Instrument
DateTime_Computer,Latitude,Longitude,degC,S m-1,dbar,DateTime_Instrument
2019-10-13T00:01:12Z,42.805,6.029,13.2990,4.60017,2469.923,2019-10-13T02:01:37Z
2019-10-13T00:04:15Z,42.805,6.029,13.2984,4.60036,2469.923,2019-10-13T02:04:41Z
2019-10-13T00:07:19Z,42.805,6.029,13.2976,4.60045,2469.923,2019-10-13T02:07:44Z
2019-10-13T00:10:22Z,42.805,6.029,13.2974,4.60053,2469.89,2019-10-13T02:10:47Z
2019-10-13T00:13:25Z,42.805,6.029,13.2983,4.60026,2469.89,2019-10-13T02:13:50Z
2019-10-13T00:16:28Z,42.805,6.029,13.2974,4.60008,2469.9,2019-10-13T02:16:53Z
2019-10-13T00:19:32Z,42.805,6.029,13.2979,4.60005,2469.9,2019-10-13T02:19:57Z
2019-10-13T00:22:35Z,42.805,6.029,13.3001,4.60034,2469.9,2019-10-13T02:23:00Z
2019-10-13T00:25:38Z,42.805,6.029,13.2976,4.60045,2469.867,2019-10-13T02:26:03Z
2019-10-13T00:28:41Z,42.805,6.029,13.2986,4.60025,2469.9,2019-10-13T02:29:06Z
2019-10-13T00:31:44Z,42.805,6.029,13.3004,4.60008,2469.914,2019-10-13T02:32:09Z
2019-10-13T00:34:48Z,42.805,6.029,13.2990,4.60044,2469.9,2019-10-13T02:35:13Z
2019-10-13T00:37:51Z,42.805,6.029,13.2971,4.60068,2469.89,2019-10-13T02:38:16Z
2019-10-13T00:40:54Z,42.805,6.029,13.2974,4.60044,2469.923,2019-10-13T02:41:19Z
2019-10-13T00:43:57Z,42.805,6.029,13.2970,4.60084,2469.867,2019-10-13T02:44:23Z
2019-10-13T00:47:01Z,42.805,6.029,13.2982,4.60041,2469.876,2019-10-13T02:47:26Z
2019-10-13T00:50:04Z,42.805,6.029,13.2968,4.60071,2469.9,2019-10-13T02:50:29Z
2019-10-13T00:53:07Z,42.805,6.029,13.2974,4.60032,2469.89,2019-10-13T02:53:32Z
2019-10-13T00:56:10Z,42.805,6.029,13.2982,4.60041,2469.853,2019-10-13T02:56:35Z
2019-10-13T00:59:13Z,42.805,6.029,13.2971,4.60043,2469.853,2019-10-13T02:59:39Z
2019-10-13T01:02:17Z,42.805,6.029,13.2979,4.60028,2469.876,2019-10-13T03:02:42Z
2019-10-13T01:05:20Z,42.805,6.029,13.2976,4.60017,2469.89,2019-10-13T03:05:45Z
2019-10-13T01:08:23Z,42.805,6.029,13.2967,4.60026,2469.9,2019-10-13T03:08:48Z
2019-10-13T01:11:26Z,42.805,6.029,13.2971,4.60012,2469.867,2019-10-13T03:11:51Z
2019-10-13T01:14:29Z,42.805,6.029,13.2978,4.60018,2469.876,2019-10-13T03:14:55Z
2019-10-13T01:17:33Z,42.805,6.029,13.2978,4.60024,2469.867,2019-10-13T03:17:58Z
2019-10-13T01:20:36Z,42.805,6.029,13.2970,4.60021,2469.89,2019-10-13T03:21:01Z
2019-10-13T01:23:39Z,42.805,6.029,13.2964,4.60037,2469.876,2019-10-13T03:24:04Z
2019-10-13T01:26:42Z,42.805,6.029,13.2998,4.60015,2469.914,2019-10-13T03:27:07Z
2019-10-13T01:29:45Z,42.805,6.029,13.2988,4.59996,2469.853,2019-10-13T03:30:11Z
2019-10-13T01:32:49Z,42.805,6.029,13.2973,4.60011,2469.876,2019-10-13T03:33:14Z
2019-10-13T01:35:52Z,42.805,6.029,13.2974,4.60023,2469.876,2019-10-13T03:36:17Z
2019-10-13T01:38:55Z,42.805,6.029,13.2986,4.60029,2469.867,2019-10-13T03:39:20Z
2019-10-13T01:41:58Z,42.805,6.029,13.2968,4.60022,2469.914,2019-10-13T03:42:23Z
2019-10-13T01:45:01Z,42.805,6.029,13.2968,4.60006,2469.89,2019-10-13T03:45:27Z
2019-10-13T01:48:05Z,42.805,6.029,13.2970,4.60014,2469.9,2019-10-13T03:48:30Z
2019-10-13T01:51:08Z,42.805,6.029,13.2979,4.60054,2469.867,2019-10-13T03:51:33Z
2019-10-13T01:54:11Z,42.805,6.029,13.2991,4.60019,2469.89,2019-10-13T03:54:36Z
2019-10-13T01:57:14Z,42.805,6.029,13.3008,4.60006,2469.89,2019-10-13T03:57:39Z
2019-10-13T02:00:17Z,42.805,6.029,13.3004,4.60024,2469.876,2019-10-13T04:00:43Z
2019-10-13T02:03:21Z,42.805,6.029,13.3004,4.60050,2469.89,2019-10-13T04:03:46Z
2019-10-13T02:06:24Z,42.805,6.029,13.3003,4.60036,2469.89,2019-10-13T04:06:49Z
2019-10-13T02:09:27Z,42.805,6.029,13.2978,4.60031,2469.839,2019-10-13T04:09:52Z
2019-10-13T02:12:30Z,42.805,6.029,13.2986,4.60024,2469.876,2019-10-13T04:12:55Z
2019-10-13T02:15:33Z,42.805,6.029,13.3002,4.60003,2469.867,2019-10-13T04:15:59Z
2019-10-13T02:18:37Z,42.805,6.029,13.2983,4.60017,2469.867,2019-10-13T04:19:02Z
2019-10-13T02:21:40Z,42.805,6.029,13.2985,4.60007,2469.853,2019-10-13T04:22:05Z
2019-10-13T02:24:43Z,42.805,6.029,13.2996,4.60049,2469.914,2019-10-13T04:25:08Z
2019-10-13T02:27:46Z,42.805,6.029,13.2993,4.60007,2469.89,2019-10-13T04:28:12Z
2019-10-13T02:30:49Z,42.805,6.029,13.2989,4.60027,2469.89,2019-10-13T04:31:15Z
2019-10-13T02:33:53Z,42.805,6.029,13.2990,4.59994,2469.914,2019-10-13T04:34:18Z
2019-10-13T02:36:56Z,42.805,6.029,13.2995,4.59988,2469.914,2019-10-13T04:37:21Z
2019-10-13T02:39:59Z,42.805,6.029,13.2982,4.60022,2469.914,2019-10-13T04:40:24Z
2019-10-13T02:43:02Z,42.805,6.029,13.2985,4.60029,2469.9,2019-10-13T04:43:27Z
2019-10-13T02:46:05Z,42.805,6.029,13.3019,4.60063,2469.914,2019-10-13T04:46:31Z
2019-10-13T02:49:09Z,42.805,6.029,13.3003,4.60039,2469.914,2019-10-13T04:49:34Z
2019-10-13T02:52:12Z,42.805,6.029,13.3015,4.60040,2469.876,2019-10-13T04:52:37Z
2019-10-13T02:55:15Z,42.805,6.029,13.3019,4.60057,2469.89,2019-10-13T04:55:40Z
2019-10-13T02:58:18Z,42.805,6.029,13.3033,4.59992,2469.914,2019-10-13T04:58:43Z
2019-10-13T03:01:21Z,42.805,6.029,13.2987,4.60004,2469.914,2019-10-13T05:01:47Z
2019-10-13T03:04:25Z,42.805,6.029,13.2997,4.60024,2469.914,2019-10-13T05:04:50Z
2019-10-13T03:07:28Z,42.805,6.029,13.3009,4.60084,2469.914,2019-10-13T05:07:53Z
2019-10-13T03:10:31Z,42.805,6.029,13.3009,4.60015,2469.923,2019-10-13T05:10:56Z
2019-10-13T03:13:34Z,42.805,6.029,13.3035,4.60014,2469.9,2019-10-13T05:14:00Z
2019-10-13T03:16:37Z,42.805,6.029,13.2984,4.59999,2469.937,2019-10-13T05:17:03Z
2019-10-13T03:19:41Z,42.805,6.029,13.2984,4.59993,2469.914,2019-10-13T05:20:06Z
2019-10-13T03:22:44Z,42.805,6.029,13.2992,4.60039,2469.914,2019-10-13T05:23:09Z
2019-10-13T03:25:47Z,42.805,6.029,13.2982,4.60021,2469.923,2019-10-13T05:26:12Z
2019-10-13T03:28:50Z,42.805,6.029,13.3026,4.60003,2469.914,2019-10-13T05:29:16Z
2019-10-13T03:31:54Z,42.805,6.029,13.2978,4.59994,2469.914,2019-10-13T05:32:19Z
2019-10-13T03:34:57Z,42.805,6.029,13.3006,4.59978,2469.937,2019-10-13T05:35:22Z
2019-10-13T03:38:00Z,42.805,6.029,13.3006,4.59991,2469.923,2019-10-13T05:38:25Z
2019-10-13T03:41:03Z,42.805,6.029,13.2982,4.59998,2469.937,2019-10-13T05:41:28Z
2019-10-13T03:44:06Z,42.805,6.029,13.3039,4.60001,2469.96,2019-10-13T05:44:32Z
2019-10-13T03:47:10Z,42.805,6.029,13.2985,4.60003,2469.96,2019-10-13T05:47:35Z
2019-10-13T03:50:13Z,42.805,6.029,13.2993,4.60026,2469.923,2019-10-13T05:50:38Z
2019-10-13T03:53:16Z,42.805,6.029,13.3004,4.59998,2469.947,2019-10-13T05:53:41Z
2019-10-13T03:56:19Z,42.805,6.029,13.3015,4.59997,2469.96,2019-10-13T05:56:44Z
2019-10-13T03:59:22Z,42.805,6.029,13.2978,4.60001,2469.96,2019-10-13T05:59:47Z
2019-10-13T04:02:25Z,42.805,6.029,13.2986,4.60001,2469.947,2019-10-13T06:02:51Z
2019-10-13T04:05:29Z,42.805,6.029,13.2982,4.60001,2469.923,2019-10-13T06:05:54Z
2019-10-13T04:08:32Z,42.805,6.029,13.2972,4.60016,2469.97,2019-10-13T06:08:57Z
2019-10-13T04:11:35Z,42.805,6.029,13.2979,4.60005,2469.97,2019-10-13T06:12:00Z
2019-10-13T04:14:38Z,42.805,6.029,13.2993,4.60002,2469.947,2019-10-13T06:15:03Z
2019-10-13T04:17:41Z,42.805,6.029,13.2979,4.60009,2469.984,2019-10-13T06:18:07Z
2019-10-13T04:20:45Z,42.805,6.029,13.2991,4.60002,2469.993,2019-10-13T06:21:10Z
2019-10-13T04:23:48Z,42.805,6.029,13.2990,4.60009,2469.984,2019-10-13T06:24:13Z
2019-10-13T04:26:51Z,42.805,6.029,13.3029,4.60016,2469.947,2019-10-13T06:27:16Z
2019-10-13T04:29:54Z,42.805,6.029,13.3034,4.59988,2469.984,2019-10-13T06:30:19Z
2019-10-13T04:32:57Z,42.805,6.029,13.3014,4.59991,2469.947,2019-10-13T06:33:23Z
2019-10-13T04:36:01Z,42.805,6.029,13.3005,4.60002,2469.984,2019-10-13T06:36:26Z
2019-10-13T04:39:04Z,42.805,6.029,13.3019,4.59991,2469.984,2019-10-13T06:39:29Z
2019-10-13T04:42:07Z,42.805,6.029,13.2995,4.59988,2469.984,2019-10-13T06:42:32Z
2019-10-13T04:45:10Z,42.805,6.029,13.2995,4.60002,2470.03,2019-10-13T06:45:35Z
2019-10-13T04:48:14Z,42.805,6.029,13.2993,4.59986,2470.007,2019-10-13T06:48:39Z
2019-10-13T04:51:17Z,42.805,6.029,13.3030,4.59991,2470.007,2019-10-13T06:51:42Z
2019-10-13T04:54:20Z,42.805,6.029,13.3020,4.59994,2469.993,2019-10-13T06:54:45Z
2019-10-13T04:57:23Z,42.805,6.029,13.3010,4.60006,2469.993,2019-10-13T06:57:48Z
2019-10-13T05:00:26Z,42.805,6.029,13.3004,4.59991,2469.993,2019-10-13T07:00:51Z
2019-10-13T05:03:30Z,42.805,6.029,13.2986,4.59976,2470.007,2019-10-13T07:03:55Z
2019-10-13T05:06:33Z,42.805,6.029,13.2993,4.59994,2469.993,2019-10-13T07:06:58Z
2019-10-13T05:09:36Z,42.805,6.029,13.3029,4.59994,2470.03,2019-10-13T07:10:01Z
2019-10-13T05:12:39Z,42.805,6.029,13.3013,4.60000,2470.007,2019-10-13T07:13:04Z
2019-10-13T05:15:42Z,42.805,6.029,13.3013,4.59996,2470.007,2019-10-13T07:16:08Z
2019-10-13T05:18:45Z,42.805,6.029,13.3011,4.59986,2470.007,2019-10-13T07:19:11Z
2019-10-13T05:21:49Z,42.805,6.029,13.3004,4.59978,2470.03,2019-10-13T07:22:14Z
2019-10-13T05:24:52Z,42.805,6.029,13.2994,4.59991,2470.017,2019-10-13T07:25:17Z
2019-10-13T05:27:55Z,42.805,6.029,13.2991,4.59991,2470.007,2019-10-13T07:28:20Z
2019-10-13T05:30:58Z,42.805,6.029,13.2996,4.59988,2470.017,2019-10-13T07:31:24Z
2019-10-13T05:34:02Z,42.805,6.029,13.3020,4.60000,2470.03,2019-10-13T07:34:27Z
2019-10-13T05:37:05Z,42.805,6.029,13.3002,4.59985,2470.053,2019-10-13T07:37:30Z
2019-10-13T05:40:08Z,42.805,6.029,13.2996,4.59988,2470.017,2019-10-13T07:40:33Z
2019-10-13T05:43:11Z,42.805,6.029,13.3003,4.59985,2470.017,2019-10-13T07:43:36Z
2019-10-13T05:46:14Z,42.805,6.029,13.3009,4.60003,2470.03,2019-10-13T07:46:40Z
2019-10-13T05:49:18Z,42.805,6.029,13.2997,4.59983,2470.03,2019-10-13T07:49:43Z
2019-10-13T05:52:21Z,42.805,6.029,13.3004,4.59981,2470.053,2019-10-13T07:52:46Z
2019-10-13T05:55:24Z,42.805,6.029,13.2998,4.59978,2470.04,2019-10-13T07:55:49Z
2019-10-13T05:58:27Z,42.805,6.029,13.2986,4.59978,2470.053,2019-10-13T07:58:52Z
2019-10-13T06:01:30Z,42.805,6.029,13.2993,4.59986,2470.03,2019-10-13T08:01:55Z
2019-10-13T06:04:34Z,42.805,6.029,13.2998,4.59984,2470.04,2019-10-13T08:04:59Z
2019-10-13T06:07:37Z,42.805,6.029,13.2996,4.59989,2470.04,2019-10-13T08:08:02Z
2019-10-13T06:10:40Z,42.805,6.029,13.3008,4.60017,2470.017,2019-10-13T08:11:05Z
2019-10-13T06:13:43Z,42.805,6.029,13.3000,4.59985,2469.993,2019-10-13T08:14:08Z
2019-10-13T06:16:46Z,42.805,6.029,13.2991,4.59993,2470.04,2019-10-13T08:17:11Z
2019-10-13T06:19:49Z,42.805,6.029,13.2999,4.60005,2470.053,2019-10-13T08:20:15Z
2019-10-13T06:22:53Z,42.805,6.029,13.2996,4.59992,2470.04,2019-10-13T08:23:18Z
2019-10-13T06:25:56Z,42.805,6.029,13.2987,4.59991,2470.017,2019-10-13T08:26:21Z
2019-10-13T06:28:59Z,42.805,6.029,13.2981,4.59976,2470.017,2019-10-13T08:29:24Z
2019-10-13T06:32:02Z,42.805,6.029,13.3010,4.59986,2470.053,2019-10-13T08:32:27Z
2019-10-13T06:35:05Z,42.805,6.029,13.2997,4.59983,2470.063,2019-10-13T08:35:31Z
2019-10-13T06:38:09Z,42.805,6.029,13.3000,4.60001,2470.053,2019-10-13T08:38:34Z
2019-10-13T06:41:12Z,42.805,6.029,13.2996,4.60001,2470.04,2019-10-13T08:41:37Z
2019-10-13T06:44:15Z,42.805,6.029,13.3000,4.59999,2470.053,2019-10-13T08:44:40Z
2019-10-13T06:47:18Z,42.805,6.029,13.2997,4.59994,2470.04,2019-10-13T08:47:43Z
2019-10-13T06:50:21Z,42.805,6.029,13.2994,4.59992,2470.04,2019-10-13T08:50:47Z
2019-10-13T06:53:25Z,42.805,6.029,13.2996,4.60017,2470.04,2019-10-13T08:53:50Z
2019-10-13T06:56:28Z,42.805,6.029,13.3009,4.59995,2470.077,2019-10-13T08:56:53Z
2019-10-13T06:59:31Z,42.805,6.029,13.2998,4.59990,2470.053,2019-10-13T08:59:56Z
2019-10-13T07:02:34Z,42.805,6.029,13.2998,4.60001,2470.017,2019-10-13T09:02:59Z
2019-10-13T07:05:37Z,42.805,6.029,13.2998,4.59990,2470.053,2019-10-13T09:06:03Z
2019-10-13T07:08:41Z,42.805,6.029,13.2997,4.59995,2470.053,2019-10-13T09:09:06Z
2019-10-13T07:11:44Z,42.805,6.029,13.2991,4.59981,2470.053,2019-10-13T09:12:09Z
2019-10-13T07:14:47Z,42.805,6.029,13.2996,4.59986,2470.053,2019-10-13T09:15:12Z
2019-10-13T07:17:50Z,42.805,6.029,13.2998,4.59991,2470.04,2019-10-13T09:18:15Z
2019-10-13T07:20:53Z,42.805,6.029,13.2993,4.59980,2470.017,2019-10-13T09:21:19Z
2019-10-13T07:23:57Z,42.805,6.029,13.2997,4.59991,2470.03,2019-10-13T09:24:22Z
2019-10-13T07:27:00Z,42.805,6.029,13.2996,4.59981,2470.017,2019-10-13T09:27:25Z
2019-10-13T07:30:03Z,42.805,6.029,13.2989,4.59986,2470.04,2019-10-13T09:30:28Z
2019-10-13T07:33:06Z,42.805,6.029,13.2992,4.59984,2470.017,2019-10-13T09:33:31Z
2019-10-13T07:36:09Z,42.805,6.029,13.3041,4.60000,2470.04,2019-10-13T09:36:35Z
2019-10-13T07:39:13Z,42.805,6.029,13.3000,4.59993,2470.053,2019-10-13T09:39:38Z
2019-10-13T07:42:16Z,42.805,6.029,13.3021,4.59998,2470.017,2019-10-13T09:42:41Z
2019-10-13T07:45:19Z,42.805,6.029,13.3011,4.60003,2470.017,2019-10-13T09:45:44Z
2019-10-13T07:48:22Z,42.805,6.029,13.3003,4.59996,2470.04,2019-10-13T09:48:47Z
2019-10-13T07:51:25Z,42.805,6.029,13.3022,4.59986,2470.04,2019-10-13T09:51:51Z
2019-10-13T07:54:28Z,42.805,6.029,13.3024,4.59991,2470.017,2019-10-13T09:54:54Z
2019-10-13T07:57:32Z,42.805,6.029,13.3024,4.59999,2469.993,2019-10-13T09:57:57Z
2019-10-13T08:00:35Z,42.805,6.029,13.3025,4.59999,2470.017,2019-10-13T10:01:00Z
2019-10-13T08:03:38Z,42.805,6.029,13.3016,4.59994,2470.053,2019-10-13T10:04:03Z
2019-10-13T08:06:41Z,42.805,6.029,13.3015,4.60003,2470.03,2019-10-13T10:07:07Z
2019-10-13T08:09:44Z,42.805,6.029,13.3029,4.59994,2470.017,2019-10-13T10:10:10Z
2019-10-13T08:12:48Z,42.805,6.029,13.3019,4.59994,2470.017,2019-10-13T10:13:13Z
2019-10-13T08:15:51Z,42.805,6.029,13.3011,4.59996,2470.017,2019-10-13T10:16:16Z
2019-10-13T08:18:54Z,42.805,6.029,13.3019,4.60004,2470.017,2019-10-13T10:19:19Z
2019-10-13T08:21:57Z,42.805,6.029,13.3031,4.59986,2469.997,2019-10-13T10:22:23Z
2019-10-13T08:25:01Z,42.805,6.029,13.3009,4.60000,2470.007,2019-10-13T10:25:26Z
2019-10-13T08:28:04Z,42.805,6.029,13.3005,4.59985,2469.97,2019-10-13T10:28:29Z
2019-10-13T08:31:07Z,42.805,6.029,13.3028,4.60006,2470.007,2019-10-13T10:31:32Z
2019-10-13T08:34:10Z,42.805,6.029,13.3011,4.60003,2470.03,2019-10-13T10:34:35Z
2019-10-13T08:37:13Z,42.805,6.029,13.2998,4.59994,2470.007,2019-10-13T10:37:38Z
2019-10-13T08:40:16Z,42.805,6.029,13.3014,4.59999,2470.017,2019-10-13T10:40:42Z
2019-10-13T08:43:20Z,42.805,6.029,13.3020,4.59994,2469.993,2019-10-13T10:43:45Z
2019-10-13T08:46:23Z,42.805,6.029,13.3034,4.59995,2470.007,2019-10-13T10:46:48Z
2019-10-13T08:49:26Z,42.805,6.029,13.3040,4.59993,2469.993,2019-10-13T10:49:51Z
2019-10-13T08:52:29Z,42.805,6.029,13.3041,4.60006,2469.993,2019-10-13T10:52:54Z
2019-10-13T08:55:33Z,42.805,6.029,13.3035,4.59995,2469.984,2019-10-13T10:55:58Z
2019-10-13T08:58:36Z,42.805,6.029,13.3013,4.60000,2469.993,2019-10-13T10:59:01Z
2019-10-13T09:01:39Z,42.805,6.029,13.3010,4.59980,2470.017,2019-10-13T11:02:04Z
2019-10-13T09:04:42Z,42.805,6.029,13.2995,4.60043,2469.993,2019-10-13T11:05:07Z
2019-10-13T09:07:45Z,42.805,6.029,13.3018,4.60010,2470.007,2019-10-13T11:08:11Z
2019-10-13T09:10:48Z,42.805,6.029,13.3033,4.60008,2469.984,2019-10-13T11:11:14Z
2019-10-13T09:13:52Z,42.805,6.029,13.3017,4.59988,2469.97,2019-10-13T11:14:17Z
2019-10-13T09:16:55Z,42.805,6.029,13.3024,4.59999,2469.984,2019-10-13T11:17:20Z
2019-10-13T09:19:58Z,42.805,6.029,13.3034,4.60024,2470.007,2019-10-13T11:20:23Z
2019-10-13T09:23:01Z,42.805,6.029,13.3011,4.60002,2470.007,2019-10-13T11:23:26Z
2019-10-13T09:26:04Z,42.805,6.029,13.3009,4.59998,2469.993,2019-10-13T11:26:30Z
2019-10-13T09:29:08Z,42.805,6.029,13.3041,4.60004,2469.97,2019-10-13T11:29:33Z
2019-10-13T09:32:11Z,42.805,6.029,13.3029,4.59998,2470.007,2019-10-13T11:32:36Z
2019-10-13T09:35:14Z,42.805,6.029,13.3029,4.60002,2469.96,2019-10-13T11:35:39Z
2019-10-13T09:38:17Z,42.805,6.029,13.3049,4.60001,2469.984,2019-10-13T11:38:43Z
2019-10-13T09:41:21Z,42.805,6.029,13.3040,4.59993,2469.96,2019-10-13T11:41:46Z
2019-10-13T09:44:24Z,42.805,6.029,13.3017,4.60011,2469.984,2019-10-13T11:44:49Z
2019-10-13T09:47:27Z,42.805,6.029,13.2998,4.60029,2469.984,2019-10-13T11:47:52Z
2019-10-13T09:50:30Z,42.805,6.029,13.3013,4.60006,2469.984,2019-10-13T11:50:55Z
2019-10-13T09:53:33Z,42.805,6.029,13.3022,4.59995,2469.984,2019-10-13T11:53:58Z
2019-10-13T09:56:36Z,42.805,6.029,13.3006,4.60013,2469.947,2019-10-13T11:57:02Z
2019-10-13T09:59:40Z,42.805,6.029,13.3015,4.60014,2469.923,2019-10-13T12:00:05Z
2019-10-13T10:02:43Z,42.805,6.029,13.3016,4.60022,2469.96,2019-10-13T12:03:08Z
2019-10-13T10:05:46Z,42.805,6.029,13.2967,4.60029,2469.947,2019-10-13T12:06:11Z
2019-10-13T10:08:49Z,42.805,6.029,13.2996,4.60026,2469.96,2019-10-13T12:09:14Z
2019-10-13T10:11:53Z,42.805,6.029,13.2960,4.60042,2469.947,2019-10-13T12:12:18Z
2019-10-13T10:14:56Z,42.805,6.029,13.2959,4.60011,2469.96,2019-10-13T12:15:21Z
2019-10-13T10:17:59Z,42.805,6.029,13.2967,4.59997,2469.947,2019-10-13T12:18:24Z
2019-10-13T10:21:02Z,42.805,6.029,13.2963,4.60014,2469.937,2019-10-13T12:21:27Z
2019-10-13T10:24:05Z,42.805,6.029,13.2976,4.60016,2469.937,2019-10-13T12:24:30Z
2019-10-13T10:27:08Z,42.805,6.029,13.2960,4.60116,2469.923,2019-10-13T12:27:34Z
2019-10-13T10:30:12Z,42.805,6.029,13.2957,4.60056,2469.947,2019-10-13T12:30:37Z
2019-10-13T10:33:15Z,42.805,6.029,13.2959,4.60021,2469.97,2019-10-13T12:33:40Z
2019-10-13T10:36:18Z,42.805,6.029,13.2959,4.60028,2469.947,2019-10-13T12:36:43Z
2019-10-13T10:39:21Z,42.805,6.029,13.2986,4.60056,2469.947,2019-10-13T12:39:46Z
2019-10-13T10:42:24Z,42.805,6.029,13.2964,4.60016,2469.923,2019-10-13T12:42:50Z
2019-10-13T10:45:28Z,42.805,6.029,13.2959,4.60093,2469.937,2019-10-13T12:45:53Z
2019-10-13T10:48:31Z,42.805,6.029,13.2963,4.60051,2469.96,2019-10-13T12:48:56Z
2019-10-13T10:51:34Z,42.805,6.029,13.2960,4.60021,2469.937,2019-10-13T12:51:59Z
2019-10-13T10:54:37Z,42.805,6.029,13.2959,4.60057,2469.947,2019-10-13T12:55:02Z
2019-10-13T10:57:40Z,42.805,6.029,13.2972,4.59989,2469.937,2019-10-13T12:58:06Z
2019-10-13T11:00:44Z,42.805,6.029,13.2970,4.59974,2469.96,2019-10-13T13:01:09Z
2019-10-13T11:03:47Z,42.805,6.029,13.2970,4.59974,2469.937,2019-10-13T13:04:12Z
2019-10-13T11:06:50Z,42.805,6.029,13.2962,4.60027,2469.937,2019-10-13T13:07:15Z
2019-10-13T11:09:53Z,42.805,6.029,13.2957,4.60046,2469.9,2019-10-13T13:10:18Z
2019-10-13T11:12:56Z,42.805,6.029,13.2989,4.59987,2469.923,2019-10-13T13:13:22Z
2019-10-13T11:16:00Z,42.805,6.029,13.2954,4.60036,2469.876,2019-10-13T13:16:25Z
2019-10-13T11:19:03Z,42.805,6.029,13.2958,4.59976,2469.914,2019-10-13T13:19:28Z
2019-10-13T11:22:06Z,42.805,6.029,13.2954,4.59981,2469.89,2019-10-13T13:22:31Z
2019-10-13T11:25:09Z,42.805,6.029,13.2955,4.59966,2469.9,2019-10-13T13:25:34Z
2019-10-13T11:28:12Z,42.805,6.029,13.2956,4.59972,2469.89,2019-10-13T13:28:38Z
2019-10-13T11:31:15Z,42.805,6.029,13.2953,4.59980,2469.923,2019-10-13T13:31:41Z
2019-10-13T11:34:19Z,42.805,6.029,13.2954,4.59975,2469.876,2019-10-13T13:34:44Z
2019-10-13T11:37:22Z,42.805,6.029,13.2957,4.59968,2469.876,2019-10-13T13:37:47Z
2019-10-13T11:40:25Z,42.805,6.029,13.2963,4.59976,2469.914,2019-10-13T13:40:50Z
2019-10-13T11:43:28Z,42.805,6.029,13.2964,4.59976,2469.9,2019-10-13T13:43:54Z
2019-10-13T11:46:32Z,42.805,6.029,13.2962,4.59992,2469.9,2019-10-13T13:46:57Z
2019-10-13T11:49:35Z,42.805,6.029,13.2958,4.59985,2469.914,2019-10-13T13:50:00Z
2019-10-13T11:52:38Z,42.805,6.029,13.2953,4.59991,2469.853,2019-10-13T13:53:03Z
2019-10-13T11:55:41Z,42.805,6.029,13.2965,4.59979,2469.9,2019-10-13T13:56:06Z
2019-10-13T11:58:45Z,42.805,6.029,13.2953,4.59964,2469.9,2019-10-13T13:59:10Z
2019-10-13T12:01:48Z,42.805,6.029,13.2958,4.59980,2469.853,2019-10-13T14:02:13Z
2019-10-13T12:04:51Z,42.805,6.029,13.2966,4.59973,2469.9,2019-10-13T14:05:16Z
2019-10-13T12:07:54Z,42.805,6.029,13.2971,4.59966,2469.853,2019-10-13T14:08:20Z
2019-10-13T12:10:58Z,42.805,6.029,13.2973,4.59980,2469.89,2019-10-13T14:11:23Z
2019-10-13T12:14:01Z,42.805,6.029,13.2981,4.59977,2469.867,2019-10-13T14:14:26Z
2019-10-13T12:17:04Z,42.805,6.029,13.2967,4.59975,2469.89,2019-10-13T14:17:29Z
2019-10-13T12:20:07Z,42.805,6.029,13.2958,4.59976,2469.876,2019-10-13T14:20:32Z
2019-10-13T12:23:10Z,42.805,6.029,13.2958,4.59983,2469.89,2019-10-13T14:23:36Z
2019-10-13T12:26:14Z,42.805,6.029,13.2998,4.60074,2469.876,2019-10-13T14:26:39Z
2019-10-13T12:29:17Z,42.805,6.029,13.2958,4.60047,2469.9,2019-10-13T14:29:42Z
2019-10-13T12:32:20Z,42.805,6.029,13.2954,4.60006,2469.876,2019-10-13T14:32:45Z
2019-10-13T12:35:23Z,42.805,6.029,13.2951,4.59990,2469.853,2019-10-13T14:35:49Z
2019-10-13T12:38:27Z,42.805,6.029,13.2958,4.59976,2469.867,2019-10-13T14:38:52Z
2019-10-13T12:41:30Z,42.805,6.029,13.2957,4.59979,2469.89,2019-10-13T14:41:55Z
2019-10-13T12:44:33Z,42.805,6.029,13.2960,4.59968,2469.876,2019-10-13T14:44:58Z
2019-10-13T12:47:36Z,42.805,6.029,13.2957,4.59966,2469.876,2019-10-13T14:48:01Z
2019-10-13T12:50:39Z,42.805,6.029,13.2958,4.59995,2469.876,2019-10-13T14:51:05Z
2019-10-13T12:53:43Z,42.805,6.029,13.2964,4.60019,2469.853,2019-10-13T14:54:08Z
2019-10-13T12:56:46Z,42.805,6.029,13.2955,4.59987,2469.867,2019-10-13T14:57:11Z
2019-10-13T12:59:49Z,42.805,6.029,13.2956,4.59983,2469.914,2019-10-13T15:00:14Z
2019-10-13T13:02:52Z,42.805,6.029,13.2958,4.59989,2469.89,2019-10-13T15:03:18Z
2019-10-13T13:05:55Z,42.805,6.029,13.2958,4.60019,2469.853,2019-10-13T15:06:21Z
2019-10-13T13:08:59Z,42.805,6.029,13.2968,4.59981,2469.853,2019-10-13T15:09:24Z
2019-10-13T13:12:02Z,42.805,6.029,13.2961,4.60022,2469.89,2019-10-13T15:12:27Z
2019-10-13T13:15:05Z,42.805,6.029,13.2964,4.59990,2469.853,2019-10-13T15:15:31Z
2019-10-13T13:18:09Z,42.805,6.029,13.2973,4.59996,2469.867,2019-10-13T15:18:34Z
2019-10-13T13:21:12Z,42.805,6.029,13.2991,4.59966,2469.867,2019-10-13T15:21:37Z
2019-10-13T13:24:15Z,42.805,6.029,13.2990,4.59970,2469.876,2019-10-13T15:24:40Z
2019-10-13T13:27:18Z,42.805,6.029,13.3006,4.60006,2469.83,2019-10-13T15:27:43Z
2019-10-13T13:30:21Z,42.805,6.029,13.2989,4.60026,2469.867,2019-10-13T15:30:47Z
2019-10-13T13:33:25Z,42.805,6.029,13.3020,4.60020,2469.867,2019-10-13T15:33:50Z
2019-10-13T13:36:28Z,42.805,6.029,13.3028,4.60029,2469.844,2019-10-13T15:36:53Z
2019-10-13T13:39:31Z,42.805,6.029,13.3015,4.60027,2469.844,2019-10-13T15:39:56Z
2019-10-13T13:42:34Z,42.805,6.029,13.3017,4.60011,2469.876,2019-10-13T15:43:00Z
2019-10-13T13:45:37Z,42.805,6.029,13.2988,4.60045,2469.853,2019-10-13T15:46:03Z
2019-10-13T13:48:41Z,42.805,6.029,13.3014,4.60007,2469.853,2019-10-13T15:49:06Z
2019-10-13T13:51:44Z,42.805,6.029,13.2982,4.60006,2469.867,2019-10-13T15:52:09Z
2019-10-13T13:54:47Z,42.805,6.029,13.3024,4.60009,2469.867,2019-10-13T15:55:12Z
2019-10-13T13:57:50Z,42.805,6.029,13.3004,4.60008,2469.853,2019-10-13T15:58:16Z
2019-10-13T14:00:54Z,42.805,6.029,13.2991,4.60006,2469.867,2019-10-13T16:01:19Z
2019-10-13T14:03:57Z,42.805,6.029,13.2998,4.60021,2469.876,2019-10-13T16:04:22Z
2019-10-13T14:07:00Z,42.805,6.029,13.3002,4.60041,2469.853,2019-10-13T16:07:25Z
2019-10-13T14:10:03Z,42.805,6.029,13.3021,4.60011,2469.853,2019-10-13T16:10:28Z
2019-10-13T14:13:06Z,42.805,6.029,13.2998,4.59999,2469.876,2019-10-13T16:13:32Z
2019-10-13T14:16:10Z,42.805,6.029,13.3000,4.60036,2469.844,2019-10-13T16:16:35Z
2019-10-13T14:19:13Z,42.805,6.029,13.2987,4.60064,2469.876,2019-10-13T16:19:38Z
2019-10-13T14:22:16Z,42.805,6.029,13.2981,4.60035,2469.867,2019-10-13T16:22:41Z
2019-10-13T14:25:19Z,42.805,6.029,13.2985,4.60011,2469.876,2019-10-13T16:25:44Z
2019-10-13T14:28:22Z,42.805,6.029,13.2989,4.60003,2469.876,2019-10-13T16:28:48Z
2019-10-13T14:31:26Z,42.805,6.029,13.2974,4.60045,2469.9,2019-10-13T16:31:51Z
2019-10-13T14:34:29Z,42.805,6.029,13.2988,4.60029,2469.89,2019-10-13T16:34:54Z
2019-10-13T14:37:32Z,42.805,6.029,13.2977,4.60044,2469.89,2019-10-13T16:37:57Z
2019-10-13T14:40:35Z,42.805,6.029,13.2979,4.60044,2469.876,2019-10-13T16:41:01Z
2019-10-13T14:43:39Z,42.805,6.029,13.2979,4.60041,2469.914,2019-10-13T16:44:04Z
2019-10-13T14:46:42Z,42.805,6.029,13.2973,4.60022,2469.923,2019-10-13T16:47:07Z
2019-10-13T14:49:45Z,42.805,6.029,13.2977,4.60016,2469.9,2019-10-13T16:50:10Z
2019-10-13T14:52:48Z,42.805,6.029,13.2985,4.60029,2469.89,2019-10-13T16:53:13Z
2019-10-13T14:55:51Z,42.805,6.029,13.2982,4.60042,2469.876,2019-10-13T16:56:17Z
2019-10-13T14:58:55Z,42.805,6.029,13.2982,4.60033,2469.876,2019-10-13T16:59:20Z
2019-10-13T15:01:58Z,42.805,6.029,13.2971,4.60021,2469.89,2019-10-13T17:02:23Z